Time,TemperatureF,DewpointF,PressureIn,WindDirection,WindDirectionDegrees,WindSpeedMPH,WindSpeedGustMPH,Humidity,HourlyPrecipIn,Conditions,Clouds,dailyrainin,SoftwareType,DateUTC
2013-06-28 00:07:00,74.9,70.0,29.75,SSW,193,3.0,4.0,84,0.00,,,0.00,weatherlink.com 1.10,2013-06-28 04:07:00,
2013-06-28 00:22:00,74.8,70.0,29.74,SSW,193,0.0,2.0,84,0.00,,,0.00,weatherlink.com 1.10,2013-06-28 04:22:00,
2013-06-28 00:37:00,75.4,70.0,29.74,West,281,0.0,3.0,83,0.00,,,0.00,weatherlink.com 1.10,2013-06-28 04:37:00,
2013-06-28 00:52:00,73.9,70.0,29.74,ESE,116,0.0,3.0,87,0.00,,,0.00,weatherlink.com 1.10,2013-06-28 04:52:00,
2013-06-28 01:07:00,74.4,70.0,29.73,West,273,2.0,7.0,85,0.00,,,0.00,weatherlink.com 1.10,2013-06-28 05:07:00,
2013-06-28 01:22:00,75.6,70.0,29.72,WNW,283,1.0,5.0,82,0.00,,,0.00,weatherlink.com 1.10,2013-06-28 05:22:00,
2013-06-28 01:37:00,74.3,69.0,29.73,NE,45,0.0,4.0,84,0.00,,,0.00,weatherlink.com 1.10,2013-06-28 05:37:00,
2013-06-28 01:52:00,73.6,69.0,29.72,ENE,59,1.0,3.0,86,0.00,,,0.00,weatherlink.com 1.10,2013-06-28 05:52:00,
2013-06-28 02:07:00,72.4,69.0,29.72,ENE,59,0.0,1.0,89,0.00,,,0.00,weatherlink.com 1.10,2013-06-28 06:07:00,
2013-06-28 02:22:00,71.5,69.0,29.71,ENE,59,1.0,2.0,91,0.00,,,0.00,weatherlink.com 1.10,2013-06-28 06:22:00,
2013-06-28 02:37:00,70.9,69.0,29.71,ENE,75,0.0,3.0,92,0.00,,,0.00,weatherlink.com 1.10,2013-06-28 06:37:00,
2013-06-28 02:52:00,70.8,68.0,29.71,ENE,75,1.0,5.0,92,0.00,,,0.00,weatherlink.com 1.10,2013-06-28 06:52:00,
2013-06-28 03:07:00,69.7,68.0,29.71,SE,135,2.0,3.0,95,0.00,,,0.00,weatherlink.com 1.10,2013-06-28 07:07:00,
2013-06-28 03:22:00,69.9,68.0,29.71,SE,135,0.0,1.0,93,0.00,,,0.00,weatherlink.com 1.10,2013-06-28 07:22:00,
2013-06-28 03:37:00,69.8,68.0,29.70,WNW,294,2.0,4.0,93,0.00,,,0.00,weatherlink.com 1.10,2013-06-28 07:37:00,
2013-06-28 03:52:00,70.6,68.0,29.70,WNW,299,0.0,2.0,90,0.00,,,0.00,weatherlink.com 1.10,2013-06-28 07:52:00,
2013-06-28 04:07:00,71.4,68.0,29.70,WNW,299,0.0,1.0,88,0.00,,,0.00,weatherlink.com 1.10,2013-06-28 08:07:00,
2013-06-28 04:22:00,71.5,68.0,29.70,WNW,299,0.0,2.0,88,0.00,,,0.00,weatherlink.com 1.10,2013-06-28 08:22:00,
2013-06-28 04:37:00,70.7,67.0,29.70,WNW,299,0.0,1.0,89,0.00,,,0.00,weatherlink.com 1.10,2013-06-28 08:37:00,
2013-06-28 04:52:00,70.3,67.0,29.69,WNW,299,0.0,2.0,90,0.00,,,0.00,weatherlink.com 1.10,2013-06-28 08:52:00,
2013-06-28 05:07:00,69.5,67.0,29.70,NNW,347,2.0,6.0,90,0.00,,,0.00,weatherlink.com 1.10,2013-06-28 09:07:00,
2013-06-28 05:22:00,70.2,67.0,29.69,NNW,338,2.0,4.0,90,0.00,,,0.00,weatherlink.com 1.10,2013-06-28 09:22:00,
2013-06-28 05:37:00,71.0,67.0,29.70,NNW,345,2.0,7.0,87,0.00,,,0.00,weatherlink.com 1.10,2013-06-28 09:37:00,
2013-06-28 05:52:00,69.0,66.0,29.69,NE,46,0.0,3.0,90,0.00,,,0.00,weatherlink.com 1.10,2013-06-28 09:52:00,
2013-06-28 06:07:00,67.0,65.0,29.70,ENE,72,2.0,3.0,92,0.00,,,0.00,weatherlink.com 1.10,2013-06-28 10:07:00,
2013-06-28 06:22:00,66.4,65.0,29.70,East,89,0.0,2.0,95,0.00,,,0.00,weatherlink.com 1.10,2013-06-28 10:22:00,
2013-06-28 06:37:00,66.8,65.0,29.70,East,89,0.0,1.0,95,0.00,,,0.00,weatherlink.com 1.10,2013-06-28 10:37:00,
2013-06-28 06:52:00,67.5,66.0,29.70,East,89,0.0,2.0,94,0.00,,,0.00,weatherlink.com 1.10,2013-06-28 10:52:00,
2013-06-28 07:07:00,68.7,67.0,29.69,East,89,0.0,1.0,93,0.00,,,0.00,weatherlink.com 1.10,2013-06-28 11:07:00,
2013-06-28 07:22:00,68.8,67.0,29.69,SE,133,0.0,2.0,93,0.00,,,0.00,weatherlink.com 1.10,2013-06-28 11:22:00,
2013-06-28 07:37:00,70.2,68.0,29.70,SE,133,0.0,3.0,91,0.00,,,0.00,weatherlink.com 1.10,2013-06-28 11:37:00,
2013-06-28 07:52:00,70.8,68.0,29.69,SE,133,0.0,3.0,90,0.00,,,0.00,weatherlink.com 1.10,2013-06-28 11:52:00,
2013-06-28 08:07:00,72.8,69.0,29.70,SE,133,0.0,2.0,88,0.00,,,0.00,weatherlink.com 1.10,2013-06-28 12:07:00,
2013-06-28 08:22:00,75.1,71.0,29.69,SE,133,1.0,3.0,86,0.00,,,0.00,weatherlink.com 1.10,2013-06-28 12:22:00,
2013-06-28 08:37:00,76.7,71.0,29.70,SE,133,0.0,2.0,82,0.00,,,0.00,weatherlink.com 1.10,2013-06-28 12:37:00,
2013-06-28 08:52:00,76.7,71.0,29.70,East,84,2.0,3.0,83,0.00,,,0.00,weatherlink.com 1.10,2013-06-28 12:52:00,
2013-06-28 09:07:00,75.6,71.0,29.70,East,92,0.0,2.0,86,0.00,,,0.00,weatherlink.com 1.10,2013-06-28 13:07:00,
2013-06-28 09:22:00,75.7,72.0,29.71,East,92,0.0,0.0,87,0.00,,,0.00,weatherlink.com 1.10,2013-06-28 13:22:00,
2013-06-28 09:37:00,77.0,72.0,29.70,ESE,104,2.0,3.0,85,0.00,,,0.00,weatherlink.com 1.10,2013-06-28 13:37:00,
2013-06-28 09:53:00,80.0,71.0,29.69,SSW,210,1.0,5.0,75,0.00,,,0.00,weatherlink.com 1.10,2013-06-28 13:53:00,
2013-06-28 10:08:00,81.1,72.0,29.68,WNW,286,6.0,6.0,74,0.00,,,0.00,weatherlink.com 1.10,2013-06-28 14:08:00,
2013-06-28 10:23:00,81.8,72.0,29.68,SSW,199,3.0,5.0,71,0.00,,,0.00,weatherlink.com 1.10,2013-06-28 14:23:00,
2013-06-28 10:38:00,82.8,71.0,29.68,WNW,291,2.0,4.0,68,0.00,,,0.00,weatherlink.com 1.10,2013-06-28 14:38:00,
2013-06-28 10:53:00,84.4,71.0,29.68,WSW,252,1.0,8.0,64,0.00,,,0.00,weatherlink.com 1.10,2013-06-28 14:53:00,
2013-06-28 11:08:00,84.9,70.0,29.68,WNW,303,3.0,7.0,62,0.00,,,0.00,weatherlink.com 1.10,2013-06-28 15:08:00,
2013-06-28 11:23:00,85.6,70.0,29.68,WNW,300,2.0,12.0,59,0.00,,,0.00,weatherlink.com 1.10,2013-06-28 15:23:00,
2013-06-28 11:38:00,86.3,70.0,29.68,WSW,254,3.0,13.0,58,0.00,,,0.00,weatherlink.com 1.10,2013-06-28 15:38:00,
2013-06-28 11:53:00,87.0,68.0,29.67,West,278,9.0,17.0,53,0.00,,,0.00,weatherlink.com 1.10,2013-06-28 15:53:00,
2013-06-28 12:08:00,88.2,69.0,29.67,NW,317,5.0,12.0,54,0.00,,,0.00,weatherlink.com 1.10,2013-06-28 16:08:00,
2013-06-28 12:23:00,88.1,68.0,29.67,NW,326,5.0,11.0,51,0.00,,,0.00,weatherlink.com 1.10,2013-06-28 16:23:00,
2013-06-28 12:38:00,86.9,69.0,29.67,WSW,254,1.0,5.0,56,0.00,,,0.00,weatherlink.com 1.10,2013-06-28 16:38:00,
2013-06-28 12:53:00,86.6,70.0,29.67,West,276,3.0,7.0,57,0.00,,,0.00,weatherlink.com 1.10,2013-06-28 16:53:00,
2013-06-28 13:08:00,87.2,70.0,29.66,WNW,285,3.0,6.0,56,0.00,,,0.00,weatherlink.com 1.10,2013-06-28 17:08:00,
2013-06-28 13:23:00,85.4,70.0,29.66,West,265,0.0,5.0,61,0.00,,,0.00,weatherlink.com 1.10,2013-06-28 17:23:00,
2013-06-28 13:38:00,85.2,71.0,29.66,WSW,243,2.0,3.0,62,0.00,,,0.00,weatherlink.com 1.10,2013-06-28 17:38:00,
2013-06-28 13:53:00,87.7,72.0,29.65,NNW,330,0.0,3.0,60,0.00,,,0.00,weatherlink.com 1.10,2013-06-28 17:53:00,
2013-06-28 14:08:00,91.0,69.0,29.64,NW,322,0.0,7.0,49,0.00,,,0.00,weatherlink.com 1.10,2013-06-28 18:08:00,
2013-06-28 14:23:00,91.0,70.0,29.64,WNW,299,9.0,11.0,50,0.00,,,0.00,weatherlink.com 1.10,2013-06-28 18:23:00,
2013-06-28 14:38:00,91.4,70.0,29.63,WNW,284,7.0,10.0,49,0.00,,,0.00,weatherlink.com 1.10,2013-06-28 18:38:00,
2013-06-28 14:53:00,90.5,68.0,29.62,NW,318,4.0,10.0,48,0.00,,,0.00,weatherlink.com 1.10,2013-06-28 18:53:00,
2013-06-28 15:08:00,91.3,66.0,29.61,NNW,337,3.0,12.0,43,0.00,,,0.00,weatherlink.com 1.10,2013-06-28 19:08:00,
2013-06-28 15:23:00,92.0,67.0,29.60,NNW,335,8.0,8.0,44,0.00,,,0.00,weatherlink.com 1.10,2013-06-28 19:23:00,
2013-06-28 15:38:00,90.8,67.0,29.60,NW,308,2.0,6.0,45,0.00,,,0.00,weatherlink.com 1.10,2013-06-28 19:38:00,
2013-06-28 15:53:00,92.4,67.0,29.59,NNE,31,1.0,7.0,43,0.00,,,0.00,weatherlink.com 1.10,2013-06-28 19:53:00,
2013-06-28 16:09:00,92.6,66.0,29.58,West,276,3.0,7.0,41,0.00,,,0.00,weatherlink.com 1.10,2013-06-28 20:09:00,
2013-06-28 16:24:00,92.6,66.0,29.58,West,279,1.0,8.0,42,0.00,,,0.00,weatherlink.com 1.10,2013-06-28 20:24:00,
2013-06-28 16:39:00,92.2,67.0,29.58,NNW,328,1.0,4.0,43,0.00,,,0.00,weatherlink.com 1.10,2013-06-28 20:39:00,
2013-06-28 16:54:00,91.2,71.0,29.57,WSW,242,1.0,3.0,52,0.00,,,0.00,weatherlink.com 1.10,2013-06-28 20:54:00,
2013-06-28 17:09:00,89.4,73.0,29.57,WSW,242,0.0,1.0,59,0.00,,,0.00,weatherlink.com 1.10,2013-06-28 21:09:00,
2013-06-28 17:24:00,89.9,70.0,29.57,SSW,195,1.0,2.0,53,0.00,,,0.00,weatherlink.com 1.10,2013-06-28 21:24:00,
2013-06-28 17:39:00,89.9,69.0,29.56,SSE,152,0.0,3.0,50,0.00,,,0.00,weatherlink.com 1.10,2013-06-28 21:39:00,
2013-06-28 17:54:00,88.7,74.0,29.56,SSE,152,0.0,2.0,61,0.00,,,0.00,weatherlink.com 1.10,2013-06-28 21:54:00,
2013-06-28 18:09:00,87.7,69.0,29.54,SSE,152,0.0,1.0,54,0.00,,,0.00,weatherlink.com 1.10,2013-06-28 22:09:00,
2013-06-28 18:24:00,87.4,69.0,29.55,NNE,29,4.0,6.0,54,0.00,,,0.00,weatherlink.com 1.10,2013-06-28 22:24:00,
2013-06-28 18:39:00,85.5,72.0,29.55,ESE,110,1.0,4.0,64,0.00,,,0.00,weatherlink.com 1.10,2013-06-28 22:39:00,
2013-06-28 18:54:00,83.6,72.0,29.55,East,83,0.0,4.0,67,0.00,,,0.00,weatherlink.com 1.10,2013-06-28 22:54:00,
2013-06-28 19:09:00,82.7,71.0,29.55,SE,125,1.0,6.0,68,0.00,,,0.00,weatherlink.com 1.10,2013-06-28 23:09:00,
2013-06-28 19:24:00,81.1,71.0,29.55,ENE,58,0.0,6.0,71,0.00,,,0.00,weatherlink.com 1.10,2013-06-28 23:24:00,
2013-06-28 19:39:00,80.7,71.0,29.56,ENE,64,1.0,5.0,71,0.00,,,0.00,weatherlink.com 1.10,2013-06-28 23:39:00,
2013-06-28 19:54:00,79.4,71.0,29.58,SW,235,0.0,11.0,76,0.00,,,0.00,weatherlink.com 1.10,2013-06-28 23:54:00,
2013-06-28 20:09:00,76.6,71.0,29.61,WSW,257,6.0,18.0,82,0.00,,,0.00,weatherlink.com 1.10,2013-06-29 00:09:00,
2013-06-28 20:24:00,73.3,69.0,29.59,NW,317,3.0,7.0,87,0.00,,,0.00,weatherlink.com 1.10,2013-06-29 00:24:00,
2013-06-28 20:39:00,73.0,70.0,29.57,NE,35,3.0,5.0,89,0.00,,,0.00,weatherlink.com 1.10,2013-06-29 00:39:00,
2013-06-28 20:54:00,72.3,70.0,29.59,West,269,5.0,8.0,91,0.00,,,0.00,weatherlink.com 1.10,2013-06-29 00:54:00,
2013-06-28 21:09:00,73.0,70.0,29.59,NNW,328,0.0,6.0,90,0.00,,,0.00,weatherlink.com 1.10,2013-06-29 01:09:00,
2013-06-28 21:24:00,74.0,70.0,29.57,ENE,60,1.0,5.0,86,0.00,,,0.00,weatherlink.com 1.10,2013-06-29 01:24:00,
2013-06-28 21:39:00,74.0,69.0,29.59,NW,304,1.0,6.0,85,0.00,,,0.00,weatherlink.com 1.10,2013-06-29 01:39:00,
2013-06-28 21:54:00,73.8,70.0,29.59,NW,308,0.0,3.0,88,0.00,,,0.00,weatherlink.com 1.10,2013-06-29 01:54:00,
2013-06-28 22:09:00,73.9,68.0,29.59,NNW,333,2.0,5.0,82,0.00,,,0.00,weatherlink.com 1.10,2013-06-29 02:09:00,
2013-06-28 22:24:00,73.1,69.0,29.60,South,188,1.0,4.0,87,0.00,,,0.00,weatherlink.com 1.10,2013-06-29 02:24:00,
2013-06-28 22:39:00,72.8,68.0,29.60,South,188,0.0,4.0,84,0.00,,,0.00,weatherlink.com 1.10,2013-06-29 02:39:00,
2013-06-28 22:54:00,73.4,67.0,29.60,West,270,4.0,4.0,79,0.00,,,0.00,weatherlink.com 1.10,2013-06-29 02:54:00,
2013-06-28 23:09:00,73.6,68.0,29.61,WNW,295,3.0,4.0,83,0.00,,,0.00,weatherlink.com 1.10,2013-06-29 03:09:00,
2013-06-28 23:39:00,73.2,66.0,29.61,NW,314,3.0,7.0,78,0.00,,,0.00,weatherlink.com 1.10,2013-06-29 03:39:00,
2013-06-28 23:54:00,73.8,66.0,29.62,North,349,0.0,4.0,77,0.00,,,0.00,weatherlink.com 1.10,2013-06-29 03:54:00,